Tianhui-4 01

operational
NORAD ID: 50572 Int'l Des: 2021-134 Owner: GCDX Country: CN
LEOCIRCULARPOLAR

About Tianhui-4 01

Description loading...

Live Position

Loading 3D Globe...

Upcoming Passes

Altitude History

Altitude vs Time

uPlot chart will show altitude changes over time

Two-Line Element Set

1 50572U 21134A 26062.70455360 .00011077 00000-0 23382-3 0 9993
2 50572 88.9813 337.6962 0011250 115.3798 244.8627 15.45008966233574
Epoch: Mar 3, 2026 • Age: 33 hours

Current Status

Altitude 432.2 km
Velocity 7.65 km/s
Sub-Earth Point -2.25°S, 143.09°W
Launch Date Dec 29, 2021
Age 4.1 years
Type other

Technical Details

Classification Payload
Mass 1000.00 kg
Dry Mass 1000.00 kg
Total Mass 1000.00 kg
Length 1.00 m
Diameter 1.00 m
Span 3.00 m
Shape Box + 2 Pan
Manufacturer DFHZ
Bus Type CAST-2000
Phase Status In Orbit
Owner/State GCDX/CN

Large Constellations

Loading constellations...